Location: *
(18.5200°S, 46.4500°E)
Time: 09:13:17
(UTC+00:00)

Cosmos 2297 Rocket - Pass Details

Date: 19 July 2019
Orbit: 838 x 844 km, 71.0° (Epoch: 20 August)

Event Time Altitude Azimuth Distance (km) Brightness Sun altitude
Rises 16:33:30 0° 354° (N) 3,379 5.6 -27.6°
Reaches altitude 10° 16:35:58 10° 358° (N) 2,449 4.8 -28.1°
Enters shadow 16:39:01 32° 12° (NNE) 1,404 3.3 -28.8°
